Zurück zum Katalog

COSMOS 2251 DEB

AktivLEO
NORAD 34589·DEBRIS·🇷🇺 Russia

Gestartet Jun 16, 1993 von Plesetsk Cosmodrome

Loading…

Nächste Überflüge (nächste 24 Stunden)

TLE

AktuellSource: Space-Track

Epoche: Sep 14, 2026, 02:59 UTC

1 34589U 93036WB  26257.12496128  .00000558  00000-0  39272-3 0  9999
2 34589  73.9254 306.5934 0249130 196.7849 192.9028 13.86505818885281

Verfolge COSMOS 2251 DEB in Echtzeit mit AllMySat

Download on the App Store